Regional Weather Roundup
Issued by NWS Sterling, VA

Home | Current Version | Previous Version | Graphics & Text | Print | Product List | Glossary On
Versions: 1 2 3 4 5 6 7 8 9 10 11 12 13 14 15 16 17 18 19 20 21 22 23 24 25 26 27 28 29 30 31 32 33 34 35 36 37 38 39 40 41 42 43 44 45 46 47 48
000
ASUS41 KLWX 290810
RWRLWX

REGIONAL WEATHER ROUNDUP
NATIONAL WEATHER SERVICE BALTIMORE MD/WASHINGTON DC
400 AM EDT WED JUL 29 2015

Note: "FAIR" indicates few or no clouds below 12,000 feet
with no significant weather and/or obstructions to visibility.
 TC=TEMPERATURE CELSIUS

 * =Non NWS site. Station does not report precipitation (e.g. rain,
    snow, etc.), thunder, or fog.

DCZ001-MDZ009-015-VAZ040>042-051-053>054-290900-
WASHINGTON METRO

CITY           SKY/WX    TMP DP  RH WIND       PRES   REMARKS
WASHINGTON NAT PTCLDY    79  74  84 S5        29.98F
DULLES         MOCLDY    70  69  97 CALM      29.99F
ANDREWS AFB    CLEAR     72  72 100 S5        29.97  FOG
FT BELVOIR     CLOUDY    72  71  97 CALM      29.97F
QUANTICO       MOCLDY    75  71  87 NW5       29.98F
COLLEGE PARK*  CLEAR     72  72 100 CALM      29.97F
LEESBURG*      CLOUDY    72  72 100 CALM      30.00S FOG
MANASSAS*      MOCLDY    72  72 100 CALM      29.98F
GAITHERSBURG*  CLEAR     70  66  88 SE5       30.02F

$$

MDZ006>007-011-014-290900-
BALTIMORE METRO

CITY           SKY/WX    TMP DP  RH WIND       PRES   REMARKS
BWI AIRPORT    PTCLDY    72  70  93 CALM      29.97F
MD SCIENCE CTR   N/A     77  72  84 MISG      29.97F
MARTIN STATE   CLEAR     73  73 100 CALM      29.98F FOG
ANNAPOLIS      CLEAR     75  72  90 CALM      29.97F
FORT MEADE*    CLEAR     68  66  94 CALM      30.00F

$$

MDZ012-015-019>023-290900-
MARYLAND EASTERN SHORE

CITY           SKY/WX    TMP DP  RH WIND       PRES   REMARKS
OCEAN CITY     CLEAR     72  70  93 CALM      29.99S
SALISBURY      CLEAR     70  69  97 CALM      29.98F
BAY BRIDGE AP*   N/A     77  73  88 SW5       29.97F
CAMBRIDGE*     PTCLDY    72  68  88 CALM      29.97F
EASTON*        CLEAR     74  74 100 CALM      30.01F

$$

MDZ017>025-290900-
SOUTHERN MARYLAND

CITY           SKY/WX    TMP DP  RH WIND       PRES   REMARKS
PATUXENT RIVER CLEAR     72  71  97 CALM      29.98F
ST INIGOES     PTCLDY    74  72  93 CALM      29.97F FOG
LEONARDTOWN*   PTCLDY    72  70  94 CALM      30.00F

$$

MDZ003>005-290900-
NORTH CENTRAL MARYLAND

CITY           SKY/WX    TMP DP  RH WIND       PRES   REMARKS
FREDERICK*     FOG       68  68 100 CALM      30.01S VSB 1/2
HAGERSTOWN APT CLEAR     72  69  90 W3        29.98F FOG
WESTMINSTER*   CLEAR     72  70  94 CALM      30.00F FOG

$$

MDZ501>502-290900-
WESTERN MARYLAND

CITY           SKY/WX    TMP DP  RH WIND       PRES   REMARKS
OAKLAND*       CLEAR     64 N/A N/A CALM      30.10R HAZE
CUMBERLAND*    CLOUDY    70  70 100 CALM      30.04S VSB 1/4

$$

VAZ025>031-290900-
SHENANDOAH VALLEY

CITY           SKY/WX    TMP DP  RH WIND       PRES   REMARKS
WINCHESTER*    CLEAR     70  68  94 CALM      30.00R FOG
FRONT ROYAL*   CLOUDY    70  70 100 CALM      29.99S VSB<1/4
LURAY*         PTSUNNY   70  70 100 CALM      30.00S FOG
NEW MARKET*    CLOUDY    68  68 100 CALM      29.99S
STAUNTON*      FOG       72  70  95 CALM      30.04S VSB 3/4
WAYNESBORO*    CLOUDY    69  69 100 CALM      30.03S

$$

WVZ021-048>050-054>055-290900-
EASTERN WEST VIRGINIA PANHANDLE

CITY           SKY/WX    TMP DP  RH WIND       PRES   REMARKS
MARTINSBURG    CLEAR     69  68  96 SW3       29.99S FOG
PETERSBURG*    FOG      N/A N/A N/A CALM      30.02S VSB 3/4

$$

VAZ036>039-050-290900-
CENTRAL FOOTHILLS

CITY           SKY/WX    TMP DP  RH WIND       PRES   REMARKS
CHARLOTTESVILL CLOUDY    72  71  97 CALM      30.00S FOG
CULPEPER*      FOG       70  70 100 CALM      29.99F VSB 1
ORANGE*        FOG       73  73 100 CALM      30.01S VSB 1
GORDONSVILLE*  FOG       72  72 100 SE5       29.99F VSB 1/2
WARRENTON*     CLOUDY    71  71 100 CALM      29.98F FOG

$$

VAZ055>057-290900-
NORTH AND CENTRAL PIEDMONT

CITY           SKY/WX    TMP DP  RH WIND       PRES   REMARKS
FREDERICKSBRG* CLOUDY    74  74 100 CALM      29.97F FOG
STAFFORD*      CLOUDY    70  68  96 CALM      30.02S

$$

NCZ024-NYZ072-PAZ021-071-VAZ022-071-290900-
OTHER REGIONAL OBSERVATIONS

CITY           SKY/WX    TMP DP  RH WIND       PRES   REMARKS
NEW YORK CITY  CLEAR     79  66  64 W3        29.97F
PHILADELPHIA   PTCLDY    79  74  84 W3        29.97F
PITTSBURGH     CLEAR     74  66  76 CALM      30.00S
ROANOKE        CLOUDY    74  73  97 E5        30.03F
RICHMOND       PTCLDY    75  71  87 CALM      29.98F
RALEIGH        MOCLDY    76  68  76 S7        29.99F

$$

ANZ530>537-290900-
MARINE OBSERVATIONS

STATION/POSITION TIME  TEMP    WIND        PRES
                       AIR SEA DIR/SP/G
                 (UTC) (F)     (DEG/KT/KT) (MB)
THOMAS PT LIGHT  NOT AVBL
BALT KEY BRIDGE  0700   76     220/  4/  5 1015.1F
COVE POINT       0700   78     240/  2/  2 1016.1F
LEWISETTA        0700   78 84  230/  4/  5 1015.0F
SOLOMONS ISLAND  0700      82                N/A

$$



USA.gov is the U.S. government's official web portal to all federal, state and local government web resources and services.